Hourly Data Report for October 20, 2015

All times are specified in Local Standard Time (LST). Add 1 hour to adjust for Daylight Saving Time where and when it is observed.

ST LEONARD CS
NEW BRUNSWICK

47°09'28.050" N
67°49'55.014" W
245.00 m
810I001
71019
WIY

Download Data

Hourly Data (October 2015)
Hourly Data Report for October 20, 2015
Temp Definition
°C
Dew Point Temp Definition
°C
Rel Hum Definition
%
Wind Dir Definition
10's deg

Wind Spd Definition
km/h
Visibility Definition
km
Stn Press Definition
kPa
Hmdx Definition


Wind Chill Definition


Weather Definition


TIME
00:00 -0.2 -1.9 88 17 15   98.48   -5 LegendNANA
01:00 0.3 -3.7 74 17 17   98.41     LegendNANA
02:00 0.6 -4.0 71 17 14   98.34     LegendNANA
03:00 0.9 -4.1 69 17 12   98.26     LegendNANA
04:00 1.3 -3.9 68 19 15   98.21     LegendNANA
05:00 1.6 -3.7 68 18 12   98.16     LegendNANA
06:00 1.8 -3.1 70 17 9   98.11     LegendNANA
07:00 2.3 -2.5 71 19 11   98.06     LegendNANA
08:00 3.0 -1.7 71 19 10   98.07     LegendNANA
09:00 4.1 -1.0 69 20 13   98.03     LegendNANA
10:00 5.6 0.4 70 20 25   97.96     LegendNANA
11:00 6.9 1.8 70 21 22   97.89     LegendNANA
12:00 9.5 4.5 71 24 18   97.93     LegendNANA
13:00 9.4 4.9 73 24 21   97.90     LegendNANA
14:00 9.6 5.2 74 25 20   97.93     LegendNANA
15:00 10.3 5.1 70 25 20   97.94     LegendNANA
16:00 7.0 2.9 75 33 20   98.08     LegendNANA
17:00 6.4 1.7 72 30 23   98.21     LegendNANA
18:00 4.9 0.7 74 30 13   98.31     LegendNANA
19:00 3.4 -0.6 75 26 5   98.43     LegendNANA
20:00 1.1 -1.0 86 25 4   98.54     LegendNANA
21:00 0.1 -1.7 88 30 7   98.65     LegendNANA
22:00 1.5 -4.7 63 28 12   98.74     LegendNANA
23:00 0.0 -5.0 69 28 11   98.84   -4 LegendNANA

Notes on Data Quality.

Legend

  • E = Estimated
  • M = Missing
  • NA = Not Available
  • ‡ = Partner data that is not subject to review by the National Climate Archives
Date modified: